#timestamp,LO_Frequency,Hit,StdDev 
1517432415.9,286046997.5,N
1517432435.7,286046987.2,N
1517432455.5,286046995.1,N
1517432475.4,286046994.6,N
1517432495.2,286046991.8,N
1517432515.1,286046990.0,N
1517432516.0,286046990.0,N
1517432535.8,286046986.5,N
1517432555.6,286046989.3,N
1517432575.5,286046991.0,N
1517432595.3,286046990.8,N
1517432615.1,286046991.4,N
1517432635.9,286046993.9,N
1517432655.7,286046993.9,N
1517432675.6,286046988.3,N
1517432695.4,286046979.6,Y
1517432715.2,286046987.5,P
1517432735.1,286046990.7,N
1517432736.0,286046990.7,P
1517432755.8,286046987.6,Y
1517432775.7,286047001.6,P
1517432795.5,286046999.0,N
1517432815.3,286047006.8,N
1517432835.2,286047009.8,N
1517432855.9,286047009.3,N
1517432875.7,286047010.3,N
1517432895.6,286047006.3,N
1517432915.4,286047013.9,N
1517432935.2,286047011.5,N
1517432955.1,286047007.5,N
1517432956.0,286047007.5,N
1517432975.8,286047004.5,N
1517432995.7,286047008.6,N
1517433015.5,286047007.3,N
1517433035.3,286047006.2,N
1517433055.2,286047012.0,N
1517433075.0,286047006.2,N
1517433075.9,286047006.2,N
1517433095.7,286047009.8,N
1517433115.6,286047005.4,N
1517433135.4,286047004.9,N
1517433155.3,286047005.7,N
1517433175.1,286047001.8,N
1517433176.0,286047001.8,N
1517433195.8,286047005.1,N
1517433215.7,286047007.9,N
1517433235.5,286047002.9,N
1517433255.3,286047002.8,N
1517433275.2,286047011.9,N
1517433295.0,286047005.0,N
1517433295.9,286047005.0,N
1517433315.8,286047006.9,N
1517433335.6,286047001.7,N
1517433355.4,286047001.3,N
1517433375.3,286047009.1,N
1517433395.1,286047007.2,N
1517433415.8,286047010.9,Y
1517433435.7,286046996.2,P
1517433455.5,286046992.5,N
1517433475.4,286046995.3,N
1517433495.2,286046997.2,N
1517433515.0,286046999.5,N
1517433515.9,286046999.5,N
1517433535.8,286047002.2,N
1517433555.6,286046999.7,N
1517433575.4,286047004.2,N
1517433595.3,286047001.2,N
1517433615.1,286046997.5,N
1517433635.9,286046998.5,N
1517433655.7,286047000.0,N
1517433675.5,286047007.0,N
1517433695.4,286047010.2,N
1517433715.2,286047012.4,N
1517433735.0,286047005.8,N
1517433735.9,286047005.8,N
1517433755.8,286047006.8,N
1517433775.6,286047007.4,N
1517433795.5,286047000.8,N
1517433815.3,286046999.6,N
1517433835.1,286046994.9,N
1517433855.9,286046993.6,N
1517433875.7,286047004.4,N
1517433895.5,286047008.9,N
1517433915.4,286047004.7,N
1517433935.2,286047001.1,N
1517433955.1,286046995.0,N
1517433956.0,286046995.0,N
1517433975.8,286046993.1,N
1517433995.6,286046997.6,N
1517434015.5,286046995.4,N
1517434035.3,286046997.1,N
1517434055.1,286047000.1,N
1517434075.9,286046998.8,N
1517434095.7,286047001.2,N
1517434115.6,286046999.1,N
1517434135.4,286046998.1,N
1517434155.2,286046995.1,N
1517434175.1,286046993.7,N
1517434176.0,286046993.7,N
1517434195.8,286046996.6,N
1517434215.6,286046997.2,N
1517434235.5,286047000.0,N
1517434255.3,286047001.9,N
1517434275.2,286047005.8,N
1517434295.9,286047002.3,N
1517434315.7,286046997.4,N
1517434335.6,286046999.7,N
1517434355.4,286046996.7,N
1517434375.2,286047000.8,N
1517434395.1,286047003.4,N
1517434396.0,286047003.4,N
1517434415.8,286046998.7,N
1517434435.7,286046996.7,N
1517434455.5,286047000.2,N
1517434475.3,286047000.3,N
1517434495.2,286046998.4,N
1517434515.0,286046999.1,N
1517434515.9,286046999.1,N
1517434535.8,286046994.7,N
1517434555.6,286046994.5,N
1517434575.4,286046995.0,N
1517434595.3,286046999.5,N
1517434615.1,286047001.5,N
1517434635.8,286047003.8,N
1517434655.7,286047000.1,N
1517434675.5,286046995.8,N
1517434695.4,286046993.4,N
1517434715.2,286046991.1,N
1517434735.0,286046997.2,N
1517434735.9,286046997.2,N
1517434755.8,286047002.1,N
1517434775.6,286047005.9,N
1517434795.4,286047002.2,N
1517434815.3,286047000.4,N
1517434835.1,286046997.5,N
1517434855.9,286046998.4,N
1517434875.7,286046995.2,N
1517434895.5,286046999.4,N
1517434915.4,286046998.7,N
1517434935.2,286046998.8,N
1517434955.0,286046997.5,N
1517434955.9,286046997.5,N
1517434975.8,286046993.7,N
1517434995.6,286046995.8,N
1517435015.5,286046994.8,N
1517435035.3,286046992.0,N
1517435055.1,286046996.2,N
1517435075.9,286046994.0,N
1517435095.7,286046996.4,N
1517435115.5,286046992.3,N
1517435135.4,286046994.9,N
1517435155.2,286047000.8,N
1517435175.1,286046997.8,N
1517435176.0,286046997.8,N
1517435195.8,286047000.7,N
1517435215.6,286047002.1,N
1517435235.5,286046995.2,N
1517435255.3,286047000.2,N
1517435275.1,286047001.8,N
1517435295.9,286047000.9,N
1517435315.7,286047005.5,N
1517435335.6,286047005.6,N
1517435355.4,286047001.8,N
1517435375.2,286046999.2,N
1517435395.1,286046998.4,N
1517435396.0,286046998.4,N
1517435415.8,286047001.6,N
1517435435.6,286046998.5,N
1517435455.5,286047000.0,N
1517435475.3,286047005.5,N
1517435495.1,286047009.1,N
1517435515.9,286047001.5,N
1517435535.7,286046993.3,N
1517435555.6,286046997.5,N
1517435575.4,286046999.4,N
1517435595.2,286046999.2,N
1517435615.1,286046997.2,N
1517435616.0,286046997.2,N
1517435635.8,286047003.1,N
1517435655.6,286047001.8,N
1517435675.5,286047005.7,N
1517435695.3,286046996.5,N
1517435715.2,286046996.2,N
1517435735.9,286046990.8,N
1517435755.7,286047000.2,N
1517435775.6,286047000.9,N
1517435795.4,286047005.9,N
1517435815.2,286047004.2,N
1517435835.1,286047004.4,N
1517435836.0,286047004.4,N
1517435855.8,286047002.2,N
1517435875.7,286047004.7,N
1517435895.5,286047006.3,N
1517435915.3,286047001.3,N
1517435935.2,286047000.5,N
1517435955.0,286047001.3,N
1517435955.9,286047001.3,N
1517435975.7,286047004.4,N
1517435995.6,286047004.5,N
